Home > Weather > Iasi > Past weeks

Flag for Romania Weather for the Past 2 Weeks in Iasi, Romania

Now
50 °F

Passing clouds.


Feels Like: 48 °F
Forecast: 33 / 47 °F
Wind: 6 mph from East

Location: Iasi Airport

Current Time: Feb 12, 2016 at 4:29:28 PM

Latest Report: Feb 12, 2016 at 4:00 PM


Visibility: N/A

Pressure: 29.89 "Hg

Humidity: 35%

Dew point: 23 °F

Location of IasiLocation

Historic Weather in Iasi — Graph

°F

Iasi Temperature Yesterday

Maximum temperature yesterday: 50 °F (at 12:00 PM)
Minimum temperature yesterday: 39 °F (at 10:00 PM)
Average temperature yesterday: 46 °F

High & Low Weather Summary for the Past Weeks

 TemperatureHumidityPressure
High54 °F (Jan 31, 4:00 PM)100% (Feb 2, 6:30 PM)30.36 "Hg (Feb 2, 6:30 PM)
Low25 °F (Feb 7, 6:00 AM)35% (Feb 11, 12:00 PM)29.39 "Hg (Feb 11, 12:00 AM)
Average39 °F72%30.02 "Hg
* Reported Jan 28 3:00 PM — Feb 12 3:00 PM, Iasi, Weather by CustomWeather, © 2016

Note: Actual official high and low records may vary slightly from our data, if they occured in-between our weather recording intervals... More about our weather records

Advertising

Iasi Weather History for the Previous 24 Hours

 ConditionsComfort  
Time TempWeatherWind HumidityBarometerVisibility
3:00 PM
Fri, Feb 12
48 °FSunny.6 mph40%29.89 "Hg10 mi
2:30 PM48 °FSunny.7 mph40%29.89 "Hg10 mi
2:00 PM48 °FScattered clouds.6 mph40%29.89 "HgN/A
1:30 PM50 °FPassing clouds.6 mph40%29.89 "HgN/A
1:00 PM48 °FPassing clouds.5 mph43%29.89 "HgN/A
12:30 PM48 °FPassing clouds.6 mph46%29.92 "HgN/A
12:00 PM46 °FSunny.6 mph50%29.92 "Hg10 mi
11:30 AM45 °FSunny.5 mph53%29.92 "Hg10 mi
11:00 AM43 °FSunny.6 mph57%29.92 "Hg10 mi
10:30 AM43 °FPassing clouds.3 mph57%29.92 "HgN/A
10:00 AM39 °FSunny.6 mph61%29.92 "Hg10 mi
9:30 AM41 °FPassing clouds.3 mph57%29.92 "HgN/A
9:00 AM39 °FSunny.2 mph56%29.89 "Hg10 mi
8:30 AM36 °FSunny.2 mph65%29.89 "Hg10 mi
8:00 AM32 °FPassing clouds.3 mph75%29.89 "HgN/A
7:30 AM32 °FSunny.5 mph69%29.89 "Hg10 mi
7:00 AM34 °FPassing clouds.3 mph65%29.89 "HgN/A
6:30 AM32 °FClear.3 mph69%29.86 "Hg10 mi
6:00 AM32 °FPassing clouds.5 mph69%29.86 "HgN/A
5:30 AM36 °FPassing clouds.3 mph60%29.86 "HgN/A
5:00 AM36 °FClear.3 mph65%29.86 "Hg10 mi
4:00 AM32 °FPassing clouds.3 mph69%29.83 "HgN/A
3:00 AM37 °FPassing clouds.2 mph60%29.83 "HgN/A
2:00 AM37 °FClear.6 mph60%29.83 "Hg10 mi
1:00 AM37 °FPassing clouds.3 mph60%29.83 "HgN/A
11:00 PM
Thu, Feb 11
39 °FClear.7 mph52%29.80 "Hg10 mi
10:00 PM39 °FPassing clouds.5 mph48%29.77 "HgN/A
9:00 PM41 °FClear.6 mph45%29.77 "Hg10 mi
8:30 PM41 °FClear.7 mph45%29.77 "Hg10 mi
8:00 PM43 °FClear.6 mph42%29.74 "Hg10 mi
7:30 PM43 °FClear.6 mph42%29.74 "Hg10 mi
7:00 PM43 °FClear.6 mph42%29.74 "Hg10 mi
6:30 PM45 °FPassing clouds.7 mph39%29.71 "HgN/A
6:00 PM45 °FClear.7 mph42%29.71 "Hg10 mi
5:30 PM46 °FPassing clouds.9 mph40%29.68 "HgN/A
5:00 PM48 °FPassing clouds.10 mph37%29.68 "HgN/A
4:30 PM50 °FSunny.12 mph35%29.65 "Hg10 mi
4:00 PM50 °FPassing clouds.8 mph35%29.65 "HgN/A
Weather by CustomWeather, © 2016

See weather overviewHow to use our weather pages